| time (UTC) | temp F | wind direction | speed MPH | gust MPH | rain 1hr in | rain 24hr in | rain mn in | humidity % | barometer mb |
| 20260506080202 | 75 | 193 | 4.0 | 6.0 | 0.00 | 0.00 | 0.00 | 89 | 100.8 |
| 20260506073202 | 75 | 204 | 5.0 | 6.0 | 0.00 | 0.00 | 0.00 | 88 | 100.8 |
| 20260506072702 | 75 | 190 | 7.0 | 7.0 | 0.00 | 0.00 | 0.00 | 88 | 100.8 |
| 20260506072203 | 75 | 201 | 2.0 | 9.0 | 0.00 | 0.00 | 0.00 | 88 | 100.8 |
| 20260506071702 | 75 | 217 | 5.0 | 7.0 | 0.00 | 0.00 | 0.00 | 88 | 100.8 |
| 20260506071202 | 75 | 184 | 5.0 | 8.0 | 0.00 | 0.00 | 0.00 | 88 | 100.8 |
| 20260506070702 | 75 | 225 | 6.0 | 9.0 | 0.00 | 0.00 | 0.00 | 88 | 100.8 |
| 20260506070202 | 75 | 251 | 3.0 | 10.0 | 0.00 | 0.00 | 0.00 | 88 | 100.8 |
| 20260506062202 | 75 | 181 | 6.0 | 11.0 | 0.00 | 0.00 | 0.00 | 88 | 100.8 |
| 20260506061702 | 75 | 179 | 4.0 | 7.0 | 0.00 | 0.00 | 0.00 | 88 | 100.8 |
| 20260506061202 | 75 | 210 | 4.0 | 12.0 | 0.00 | 0.00 | 0.00 | 88 | 100.8 |
| 20260506060703 | 75 | 215 | 5.0 | 9.0 | 0.00 | 0.00 | 0.00 | 89 | 100.8 |
| 20260506051202 | 75 | 188 | 4.0 | 11.0 | 0.00 | 0.00 | 0.00 | 89 | 100.8 |
| 20260506050703 | 75 | 199 | 3.0 | 8.0 | 0.00 | 0.00 | 0.00 | 89 | 100.8 |
| 20260506050202 | 75 | 173 | 3.0 | 9.0 | 0.00 | 0.00 | 0.00 | 89 | 100.7 |
| 20260506044702 | 75 | 177 | 1.0 | 5.0 | 0.00 | 0.00 | 0.00 | 89 | 100.7 |
| 20260506044202 | 75 | 180 | 2.0 | 12.0 | 0.00 | 0.00 | 0.00 | 89 | 100.7 |
| 20260506043702 | 75 | 214 | 5.0 | 7.0 | 0.00 | 0.00 | 0.00 | 89 | 100.7 |
| 20260506042702 | 75 | 157 | 3.0 | 9.0 | 0.00 | 0.00 | 0.00 | 88 | 100.8 |
| 20260506042202 | 75 | 172 | 2.0 | 5.0 | 0.00 | 0.00 | 0.00 | 88 | 100.8 |
| 20260506041702 | 75 | 173 | 1.0 | 7.0 | 0.00 | 0.00 | 0.00 | 88 | 100.8 |
| 20260506041202 | 75 | 175 | 2.0 | 4.0 | 0.00 | 0.00 | 0.00 | 88 | 100.8 |
| 20260506040202 | 75 | 179 | 3.0 | 5.0 | 0.00 | 0.00 | 0.00 | 87 | 100.7 |
| 20260506035702 | 76 | 205 | 0.0 | 4.0 | 0.00 | 0.00 | 0.00 | 87 | 100.7 |
| 20260506035204 | 76 | 177 | 2.0 | 8.0 | 0.00 | 0.00 | 0.00 | 87 | 100.7 |
| 20260506034702 | 76 | 169 | 2.0 | 10.0 | 0.00 | 0.00 | 0.00 | 87 | 100.7 |
| 20260506034202 | 76 | 188 | 2.0 | 8.0 | 0.00 | 0.00 | 0.00 | 86 | 100.7 |
| 20260506033204 | 76 | 194 | 3.0 | 5.0 | 0.00 | 0.00 | 0.00 | 86 | 100.7 |
| 20260506032203 | 76 | 167 | 3.0 | 10.0 | 0.00 | 0.00 | 0.00 | 85 | 100.7 |
| 20260506031702 | 77 | 171 | 1.0 | 4.0 | 0.00 | 0.00 | 0.00 | 85 | 100.7 |
| 20260506031202 | 77 | 163 | 5.0 | 10.0 | 0.00 | 0.00 | 0.00 | 84 | 100.7 |
| 20260506030702 | 77 | 209 | 5.0 | 8.0 | 0.00 | 0.00 | 0.00 | 84 | 100.7 |
| 20260506030202 | 77 | 157 | 0.0 | 4.0 | 0.00 | 0.00 | 0.00 | 83 | 100.7 |
| 20260506025704 | 77 | 268 | 2.0 | 5.0 | 0.00 | 0.00 | 0.00 | 82 | 100.7 |
| 20260506025203 | 77 | 205 | 2.0 | 6.0 | 0.00 | 0.00 | 0.00 | 82 | 100.7 |
| 20260506024702 | 77 | 242 | 1.0 | 4.0 | 0.00 | 0.00 | 0.00 | 81 | 100.7 |
| 20260506024202 | 77 | 213 | 3.0 | 5.0 | 0.00 | 0.00 | 0.00 | 81 | 100.7 |
| 20260506023702 | 78 | 212 | 2.0 | 6.0 | 0.00 | 0.00 | 0.00 | 80 | 100.7 |
| 20260506023203 | 78 | 180 | 2.0 | 4.0 | 0.00 | 0.00 | 0.00 | 80 | 100.7 |
| 20260506022703 | 78 | 203 | 3.0 | 4.0 | 0.00 | 0.00 | 0.00 | 80 | 100.6 |
| 20260506022202 | 78 | 185 | 1.0 | 7.0 | 0.00 | 0.00 | 0.00 | 79 | 100.6 |
| 20260506021702 | 78 | 196 | 3.0 | 5.0 | 0.00 | 0.00 | 0.00 | 79 | 100.6 |
| 20260506021203 | 78 | 174 | 1.0 | 3.0 | 0.00 | 0.00 | 0.00 | 79 | 100.6 |
| 20260506020702 | 78 | 186 | 4.0 | 5.0 | 0.00 | 0.00 | 0.00 | 79 | 100.6 |
| 20260506020203 | 78 | 187 | 2.0 | 6.0 | 0.00 | 0.00 | 0.00 | 79 | 100.6 |
| 20260506015702 | 78 | 164 | 0.0 | 6.0 | 0.00 | 0.00 | 0.00 | 79 | 100.6 |
| 20260506015202 | 78 | 182 | 4.0 | 6.0 | 0.00 | 0.00 | 0.00 | 78 | 100.6 |
| 20260506014202 | 79 | 177 | 2.0 | 4.0 | 0.00 | 0.00 | 0.00 | 78 | 100.6 |
| 20260506013702 | 79 | 183 | 1.0 | 6.0 | 0.00 | 0.00 | 0.00 | 78 | 100.6 |
| 20260506012702 | 79 | 225 | 2.0 | 4.0 | 0.00 | 0.00 | 0.00 | 77 | 100.6 |
| 20260506011202 | 80 | 185 | 2.0 | 5.0 | 0.00 | 0.00 | 0.00 | 76 | 100.6 |
| 20260506010702 | 80 | 204 | 4.0 | 6.0 | 0.00 | 0.00 | 0.00 | 76 | 100.6 |
| 20260506010203 | 80 | 196 | 2.0 | 6.0 | 0.00 | 0.00 | 0.00 | 75 | 100.6 |
| 20260506005702 | 80 | 200 | 1.0 | 5.0 | 0.00 | 0.00 | 0.00 | 74 | 100.6 |
| 20260506005202 | 81 | 171 | 0.0 | 4.0 | 0.00 | 0.00 | 0.00 | 73 | 100.6 |
| 20260506004203 | 81 | 198 | 3.0 | 4.0 | 0.00 | 0.00 | 0.00 | 71 | 100.6 |
| 20260506003703 | 81 | 238 | 3.0 | 5.0 | 0.00 | 0.00 | 0.00 | 70 | 100.5 |
| 20260506003202 | 81 | 225 | 2.0 | 5.0 | 0.00 | 0.00 | 0.00 | 69 | 100.5 |
| 20260506002702 | 81 | 225 | 2.0 | 6.0 | 0.00 | 0.00 | 0.00 | 69 | 100.5 |
| 20260506002202 | 81 | 247 | 4.0 | 6.0 | 0.00 | 0.00 | 0.00 | 69 | 100.5 |
| 20260506001702 | 81 | 181 | 5.0 | 6.0 | 0.00 | 0.00 | 0.00 | 69 | 100.5 |
| 20260506001203 | 82 | 235 | 2.0 | 5.0 | 0.00 | 0.00 | 0.00 | 69 | 100.5 |
| 20260506000702 | 82 | 227 | 3.0 | 6.0 | 0.00 | 0.00 | 0.00 | 69 | 100.5 |
| 20260506000204 | 81 | 231 | 2.0 | 4.0 | 0.00 | 0.00 | 0.00 | 69 | 100.5 |
| 20260505235703 | 82 | 190 | 8.0 | 8.0 | 0.00 | 0.00 | 0.00 | 69 | 100.5 |
| 20260505235202 | 82 | 201 | 6.0 | 8.0 | 0.00 | 0.00 | 0.00 | 69 | 100.5 |
| 20260505233703 | 82 | 229 | 2.0 | 7.0 | 0.00 | 0.00 | 0.00 | 69 | 100.5 |
| 20260505233202 | 82 | 189 | 6.0 | 8.0 | 0.00 | 0.00 | 0.00 | 69 | 100.5 |
| 20260505232202 | 82 | 221 | 3.0 | 8.0 | 0.00 | 0.00 | 0.00 | 69 | 100.5 |
| 20260505231202 | 82 | 109 | 2.0 | 6.0 | 0.00 | 0.00 | 0.00 | 68 | 100.5 |
| 20260505230703 | 82 | 198 | 4.0 | 10.0 | 0.00 | 0.00 | 0.00 | 68 | 100.5 |
| 20260505230202 | 82 | 198 | 2.0 | 11.0 | 0.00 | 0.00 | 0.00 | 68 | 100.5 |
| 20260505225701 | 82 | 199 | 4.0 | 4.0 | 0.00 | 0.00 | 0.00 | 67 | 100.5 |
| 20260505225202 | 83 | 227 | 4.0 | 7.0 | 0.00 | 0.00 | 0.00 | 66 | 100.5 |
| 20260505224702 | 83 | 217 | 4.0 | 6.0 | 0.00 | 0.00 | 0.00 | 65 | 100.5 |
| 20260505223702 | 83 | 250 | 2.0 | 8.0 | 0.00 | 0.00 | 0.00 | 65 | 100.5 |
| 20260505223202 | 83 | 200 | 4.0 | 6.0 | 0.00 | 0.00 | 0.00 | 65 | 100.5 |
| 20260505222702 | 82 | 207 | 3.0 | 6.0 | 0.00 | 0.00 | 0.00 | 65 | 100.5 |
| 20260505222202 | 82 | 189 | 4.0 | 9.0 | 0.00 | 0.00 | 0.00 | 65 | 100.5 |
| 20260505221702 | 82 | 192 | 5.0 | 9.0 | 0.00 | 0.00 | 0.00 | 66 | 100.5 |
| 20260505220702 | 82 | 205 | 2.0 | 9.0 | 0.00 | 0.00 | 0.00 | 66 | 100.5 |
| 20260505215702 | 83 | 177 | 8.0 | 12.0 | 0.00 | 0.00 | 0.00 | 65 | 100.5 |
| 20260505215202 | 83 | 192 | 5.0 | 11.0 | 0.00 | 0.00 | 0.00 | 65 | 100.5 |
| 20260505214702 | 83 | 200 | 7.0 | 12.0 | 0.00 | 0.00 | 0.00 | 65 | 100.6 |
| 20260505214203 | 83 | 236 | 3.0 | 12.0 | 0.00 | 0.00 | 0.00 | 65 | 100.6 |
| 20260505213702 | 83 | 232 | 5.0 | 11.0 | 0.00 | 0.00 | 0.00 | 64 | 100.6 |
| 20260505213202 | 82 | 230 | 4.0 | 8.0 | 0.00 | 0.00 | 0.00 | 66 | 100.6 |
| 20260505212702 | 82 | 206 | 6.0 | 8.0 | 0.00 | 0.00 | 0.00 | 66 | 100.6 |
| 20260505212203 | 82 | 240 | 5.0 | 17.0 | 0.00 | 0.00 | 0.00 | 66 | 100.6 |
| 20260505211702 | 83 | 183 | 6.0 | 14.0 | 0.00 | 0.00 | 0.00 | 65 | 100.6 |
| 20260505211202 | 82 | 180 | 2.0 | 13.0 | 0.00 | 0.00 | 0.00 | 67 | 100.6 |
| 20260505210702 | 82 | 197 | 5.0 | 12.0 | 0.00 | 0.00 | 0.00 | 67 | 100.6 |
| 20260505210202 | 82 | 183 | 3.0 | 10.0 | 0.00 | 0.00 | 0.00 | 67 | 100.6 |
| 20260505205702 | 82 | 181 | 4.0 | 13.0 | 0.00 | 0.00 | 0.00 | 67 | 100.6 |
| 20260505205202 | 82 | 193 | 2.0 | 13.0 | 0.00 | 0.00 | 0.00 | 67 | 100.6 |
| 20260505203702 | 82 | 167 | 1.0 | 12.0 | 0.00 | 0.00 | 0.00 | 68 | 100.6 |
| 20260505202703 | 81 | 231 | 4.0 | 11.0 | 0.00 | 0.00 | 0.00 | 68 | 100.7 |
| 20260505202202 | 82 | 158 | 4.0 | 10.0 | 0.00 | 0.00 | 0.00 | 69 | 100.7 |
| 20260505201702 | 81 | 205 | 3.0 | 12.0 | 0.00 | 0.00 | 0.00 | 69 | 100.7 |
| 20260505201202 | 81 | 243 | 4.0 | 6.0 | 0.00 | 0.00 | 0.00 | 69 | 100.7 |
| 20260505200702 | 81 | 188 | 4.0 | 8.0 | 0.00 | 0.00 | 0.00 | 70 | 100.7 |
| 20260505200202 | 81 | 175 | 8.0 | 11.0 | 0.00 | 0.00 | 0.00 | 69 | 100.7 |
| 20260505195202 | 81 | 219 | 6.0 | 14.0 | 0.00 | 0.00 | 0.00 | 69 | 100.7 |
| 20260505194703 | 82 | 189 | 7.0 | 14.0 | 0.00 | 0.00 | 0.00 | 68 | 100.7 |
| 20260505194202 | 82 | 224 | 6.0 | 8.0 | 0.00 | 0.00 | 0.00 | 68 | 100.7 |
| 20260505193703 | 82 | 221 | 8.0 | 12.0 | 0.00 | 0.00 | 0.00 | 68 | 100.7 |
| 20260505192702 | 81 | 203 | 7.0 | 11.0 | 0.00 | 0.00 | 0.00 | 67 | 100.7 |
| 20260505192203 | 81 | 239 | 4.0 | 9.0 | 0.00 | 0.00 | 0.00 | 67 | 100.7 |
| 20260505191702 | 81 | 239 | 3.0 | 6.0 | 0.00 | 0.00 | 0.00 | 68 | 100.7 |
| 20260505191202 | 81 | 213 | 4.0 | 6.0 | 0.00 | 0.00 | 0.00 | 68 | 100.7 |
| 20260505190703 | 80 | 252 | 6.0 | 6.0 | 0.00 | 0.00 | 0.00 | 68 | 100.7 |
| 20260505190202 | 80 | 211 | 1.0 | 8.0 | 0.00 | 0.00 | 0.00 | 70 | 100.7 |
| 20260505185702 | 80 | 233 | 3.0 | 6.0 | 0.00 | 0.00 | 0.00 | 68 | 100.7 |
| 20260505185202 | 79 | 234 | 3.0 | 6.0 | 0.00 | 0.00 | 0.00 | 70 | 100.7 |
| 20260505184702 | 80 | 203 | 4.0 | 8.0 | 0.00 | 0.00 | 0.00 | 70 | 100.7 |
| 20260505184202 | 79 | 247 | 3.0 | 5.0 | 0.00 | 0.00 | 0.00 | 72 | 100.7 |
| 20260505183702 | 79 | 176 | 5.0 | 7.0 | 0.00 | 0.00 | 0.00 | 72 | 100.7 |
| 20260505183202 | 78 | 213 | 3.0 | 6.0 | 0.00 | 0.00 | 0.00 | 72 | 100.8 |
| 20260505182703 | 77 | 206 | 5.0 | 9.0 | 0.00 | 0.00 | 0.00 | 73 | 100.8 |
| 20260505182202 | 77 | 238 | 5.0 | 8.0 | 0.00 | 0.00 | 0.00 | 74 | 100.8 |
| 20260505181702 | 77 | 235 | 2.0 | 8.0 | 0.00 | 0.00 | 0.00 | 74 | 100.8 |
| 20260505181202 | 76 | 180 | 5.0 | 7.0 | 0.00 | 0.00 | 0.00 | 76 | 100.8 |
| 20260505180702 | 76 | 219 | 2.0 | 8.0 | 0.00 | 0.00 | 0.00 | 76 | 100.8 |
| 20260505180202 | 76 | 213 | 5.0 | 7.0 | 0.00 | 0.00 | 0.00 | 76 | 100.8 |
| 20260505175702 | 76 | 239 | 6.0 | 8.0 | 0.00 | 0.00 | 0.00 | 76 | 100.8 |
| 20260505175203 | 76 | 227 | 3.0 | 7.0 | 0.00 | 0.00 | 0.00 | 77 | 100.8 |
| 20260505174702 | 76 | 209 | 5.0 | 7.0 | 0.00 | 0.00 | 0.00 | 78 | 100.8 |
| 20260505173703 | 75 | 247 | 4.0 | 6.0 | 0.00 | 0.00 | 0.00 | 78 | 100.8 |
| 20260505173202 | 75 | 261 | 4.0 | 11.0 | 0.00 | 0.00 | 0.00 | 78 | 100.8 |
| 20260505172702 | 75 | 206 | 4.0 | 6.0 | 0.00 | 0.00 | 0.00 | 79 | 100.8 |
| 20260505172202 | 75 | 215 | 4.0 | 9.0 | 0.00 | 0.00 | 0.00 | 80 | 100.8 |
| 20260505171702 | 74 | 243 | 3.0 | 6.0 | 0.00 | 0.00 | 0.00 | 81 | 100.8 |
| 20260505170702 | 74 | 211 | 5.0 | 9.0 | 0.00 | 0.00 | 0.00 | 81 | 100.8 |
| 20260505170202 | 74 | 168 | 2.0 | 4.0 | 0.00 | 0.00 | 0.00 | 81 | 100.8 |
| 20260505165702 | 74 | 260 | 2.0 | 6.0 | 0.00 | 0.00 | 0.00 | 81 | 100.8 |
| 20260505165202 | 74 | 227 | 5.0 | 7.0 | 0.00 | 0.00 | 0.00 | 81 | 100.8 |
| 20260505164703 | 74 | 239 | 2.0 | 10.0 | 0.00 | 0.00 | 0.00 | 81 | 100.8 |
| 20260505164203 | 74 | 228 | 5.0 | 8.0 | 0.00 | 0.00 | 0.00 | 81 | 100.8 |
| 20260505163702 | 73 | 243 | 3.0 | 5.0 | 0.00 | 0.00 | 0.00 | 82 | 100.8 |
| 20260505163202 | 73 | 222 | 2.0 | 6.0 | 0.00 | 0.00 | 0.00 | 83 | 100.8 |
| 20260505162702 | 73 | 250 | 4.0 | 5.0 | 0.00 | 0.00 | 0.00 | 84 | 100.8 |
| 20260505162202 | 72 | 248 | 5.0 | 6.0 | 0.00 | 0.00 | 0.00 | 84 | 100.8 |
| 20260505161703 | 72 | 264 | 4.0 | 6.0 | 0.00 | 0.00 | 0.00 | 84 | 100.8 |
| 20260505161202 | 72 | 261 | 3.0 | 10.0 | 0.00 | 0.00 | 0.00 | 85 | 100.8 |
| 20260505160702 | 72 | 233 | 3.0 | 10.0 | 0.00 | 0.00 | 0.00 | 86 | 100.8 |
| 20260505153203 | 71 | 182 | 4.0 | 10.0 | 0.00 | 0.00 | 0.00 | 87 | 100.8 |
| 20260505152702 | 72 | 214 | 4.0 | 5.0 | 0.00 | 0.00 | 0.00 | 87 | 100.8 |
| 20260505152202 | 72 | 231 | 6.0 | 8.0 | 0.00 | 0.00 | 0.00 | 87 | 100.8 |
| 20260505151202 | 71 | 221 | 2.0 | 6.0 | 0.00 | 0.00 | 0.00 | 87 | 100.8 |
| 20260505150703 | 71 | 240 | 5.0 | 9.0 | 0.00 | 0.00 | 0.00 | 88 | 100.8 |
| 20260505150202 | 71 | 212 | 6.0 | 10.0 | 0.00 | 0.00 | 0.00 | 88 | 100.8 |
| 20260505140202 | 70 | 239 | 4.0 | 10.0 | 0.00 | 0.00 | 0.00 | 89 | 100.8 |
| 20260505130202 | 70 | 259 | 3.0 | 5.0 | 0.00 | 0.00 | 0.00 | 89 | 100.7 |
| 20260505124702 | 70 | 184 | 8.0 | 11.0 | 0.00 | 0.00 | 0.00 | 89 | 100.7 |
| 20260505124202 | 70 | 209 | 5.0 | 9.0 | 0.00 | 0.00 | 0.00 | 89 | 100.7 |
| 20260505123702 | 70 | 197 | 5.0 | 6.0 | 0.00 | 0.00 | 0.00 | 89 | 100.7 |
| 20260505123202 | 70 | 197 | 2.0 | 7.0 | 0.00 | 0.00 | 0.00 | 89 | 100.7 |
| 20260505122702 | 70 | 176 | 2.0 | 6.0 | 0.00 | 0.00 | 0.00 | 89 | 100.7 |
| 20260505122202 | 70 | 167 | 7.0 | 9.0 | 0.00 | 0.00 | 0.00 | 89 | 100.7 |
| 20260505121703 | 70 | 191 | 4.0 | 10.0 | 0.00 | 0.00 | 0.00 | 89 | 100.7 |
| 20260505121202 | 69 | 219 | 5.0 | 6.0 | 0.00 | 0.00 | 0.00 | 89 | 100.7 |
| 20260505120702 | 70 | 193 | 4.0 | 10.0 | 0.00 | 0.00 | 0.00 | 89 | 100.7 |
| 20260505120201 | 70 | 181 | 7.0 | 11.0 | 0.00 | 0.00 | 0.00 | 89 | 100.7 |
| 20260505115202 | 69 | 225 | 3.0 | 6.0 | 0.00 | 0.00 | 0.00 | 89 | 100.7 |
| 20260505114703 | 69 | 205 | 3.0 | 8.0 | 0.00 | 0.00 | 0.00 | 89 | 100.7 |
| 20260505114202 | 69 | 257 | 2.0 | 3.0 | 0.00 | 0.00 | 0.00 | 89 | 100.7 |
| 20260505113704 | 69 | 271 | 4.0 | 9.0 | 0.00 | 0.00 | 0.00 | 89 | 100.7 |
| 20260505113202 | 69 | 212 | 6.0 | 12.0 | 0.00 | 0.00 | 0.00 | 90 | 100.7 |
| 20260505112703 | 69 | 223 | 6.0 | 6.0 | 0.00 | 0.00 | 0.00 | 89 | 100.7 |
| 20260505112202 | 69 | 235 | 7.0 | 7.0 | 0.00 | 0.00 | 0.00 | 89 | 100.7 |
| 20260505111703 | 69 | 218 | 8.0 | 13.0 | 0.00 | 0.00 | 0.00 | 89 | 100.7 |
| 20260505111201 | 69 | 247 | 5.0 | 13.0 | 0.00 | 0.00 | 0.00 | 89 | 100.7 |
| 20260505110702 | 69 | 188 | 6.0 | 7.0 | 0.00 | 0.00 | 0.00 | 89 | 100.7 |
| 20260505110203 | 70 | 236 | 3.0 | 10.0 | 0.00 | 0.00 | 0.00 | 88 | 100.7 |
| 20260505102202 | 70 | 219 | 5.0 | 9.0 | 0.00 | 0.00 | 0.00 | 87 | 100.7 |
| 20260505101702 | 70 | 221 | 4.0 | 9.0 | 0.00 | 0.00 | 0.00 | 87 | 100.7 |
| 20260505101202 | 70 | 221 | 4.0 | 9.0 | 0.00 | 0.00 | 0.00 | 87 | 100.7 |
| 20260505100702 | 70 | 196 | 9.0 | 11.0 | 0.00 | 0.00 | 0.00 | 87 | 100.7 |
| 20260505100202 | 70 | 247 | 3.0 | 7.0 | 0.00 | 0.00 | 0.00 | 87 | 100.7 |
| 20260505095702 | 70 | 260 | 3.0 | 5.0 | 0.00 | 0.00 | 0.00 | 86 | 100.7 |
| 20260505095202 | 70 | 242 | 4.0 | 10.0 | 0.00 | 0.00 | 0.00 | 87 | 100.7 |
| 20260505094203 | 70 | 200 | 2.0 | 10.0 | 0.00 | 0.00 | 0.00 | 86 | 100.7 |
| 20260505093702 | 70 | 229 | 4.0 | 6.0 | 0.00 | 0.00 | 0.00 | 86 | 100.7 |
| 20260505092702 | 70 | 254 | 4.0 | 8.0 | 0.00 | 0.00 | 0.00 | 87 | 100.7 |
| 20260505092201 | 70 | 216 | 7.0 | 8.0 | 0.00 | 0.00 | 0.00 | 87 | 100.7 |
| 20260505091702 | 70 | 204 | 2.0 | 5.0 | 0.00 | 0.00 | 0.00 | 86 | 100.7 |
| 20260505091202 | 70 | 233 | 7.0 | 16.0 | 0.00 | 0.00 | 0.00 | 87 | 100.7 |
| 20260505090702 | 70 | 179 | 3.0 | 13.0 | 0.00 | 0.00 | 0.00 | 87 | 100.7 |
| 20260505090201 | 70 | 244 | 2.0 | 7.0 | 0.00 | 0.00 | 0.00 | 87 | 100.7 |
| 20260505085202 | 70 | 255 | 5.0 | 10.0 | 0.00 | 0.00 | 0.00 | 87 | 100.7 |
| 20260505084703 | 70 | 226 | 5.0 | 7.0 | 0.00 | 0.00 | 0.00 | 87 | 100.7 |
| 20260505084202 | 70 | 218 | 4.0 | 11.0 | 0.00 | 0.00 | 0.00 | 87 | 100.7 |
| 20260505083702 | 70 | 264 | 6.0 | 16.0 | 0.00 | 0.00 | 0.00 | 87 | 100.7 |
| 20260505083201 | 70 | 246 | 6.0 | 8.0 | 0.00 | 0.00 | 0.00 | 87 | 100.8 |
| 20260505082702 | 70 | 234 | 2.0 | 5.0 | 0.00 | 0.00 | 0.00 | 87 | 100.8 |
| 20260505082202 | 70 | 241 | 4.0 | 10.0 | 0.00 | 0.00 | 0.00 | 87 | 100.8 |
| 20260505081202 | 70 | 249 | 5.0 | 11.0 | 0.00 | 0.00 | 0.00 | 86 | 100.8 |
| 20260505080702 | 70 | 219 | 3.0 | 9.0 | 0.00 | 0.00 | 0.00 | 86 | 100.8 |